TimePDT,TemperatureF,Dew PointF,Humidity,Sea Level PressureIn,VisibilityMPH,Wind Direction,Wind SpeedMPH,Gust SpeedMPH,PrecipitationIn,Events,Conditions,WindDirDegrees,DateUTC
12:53 AM,79.0,39.0,24,29.69,10.0,NNW,13.8,25.3,N/A,,Clear,330,2013-07-22 07:53:00
1:53 AM,75.9,37.0,24,29.71,10.0,West,6.9,-,N/A,,Clear,280,2013-07-22 08:53:00
2:53 AM,75.0,37.0,25,29.71,10.0,WNW,11.5,19.6,N/A,,Clear,290,2013-07-22 09:53:00
3:53 AM,73.0,36.0,26,29.73,10.0,NW,9.2,-,N/A,,Clear,310,2013-07-22 10:53:00
4:53 AM,73.0,35.1,25,29.75,10.0,NW,9.2,-,N/A,,Clear,320,2013-07-22 11:53:00
5:53 AM,72.0,35.1,26,29.76,10.0,WNW,6.9,-,N/A,,Clear,300,2013-07-22 12:53:00
6:53 AM,73.9,35.1,24,29.78,10.0,West,6.9,-,N/A,,Clear,280,2013-07-22 13:53:00
7:53 AM,79.0,35.1,20,29.80,10.0,WNW,8.1,-,N/A,,Clear,300,2013-07-22 14:53:00
8:53 AM,81.0,36.0,20,29.81,10.0,Variable,4.6,-,N/A,,Clear,0,2013-07-22 15:53:00
9:53 AM,86.0,37.0,18,29.81,10.0,SSW,8.1,-,N/A,,Clear,200,2013-07-22 16:53:00
10:53 AM,88.0,39.0,18,29.82,10.0,SW,9.2,-,N/A,,Clear,220,2013-07-22 17:53:00
11:53 AM,91.0,37.9,15,29.83,10.0,SW,11.5,-,N/A,,Clear,220,2013-07-22 18:53:00
12:53 PM,91.0,35.1,14,29.82,10.0,South,13.8,18.4,N/A,,Clear,190,2013-07-22 19:53:00
1:53 PM,93.9,37.9,14,29.82,10.0,SW,11.5,17.3,N/A,,Clear,220,2013-07-22 20:53:00
2:53 PM,93.9,37.0,14,29.81,10.0,WSW,11.5,17.3,N/A,,Clear,250,2013-07-22 21:53:00
3:53 PM,95.0,35.1,12,29.80,10.0,SW,9.2,18.4,N/A,,Clear,220,2013-07-22 22:53:00
4:53 PM,97.0,37.0,12,29.78,10.0,South,15.0,21.9,N/A,,Clear,190,2013-07-22 23:53:00
5:53 PM,97.0,34.0,11,29.77,10.0,SW,11.5,20.7,N/A,,Clear,230,2013-07-23 00:53:00
6:53 PM,96.1,37.0,13,29.78,10.0,SSW,15.0,-,N/A,,Clear,210,2013-07-23 01:53:00
7:53 PM,91.0,43.0,19,29.78,10.0,WSW,9.2,-,N/A,,Clear,240,2013-07-23 02:53:00
8:53 PM,89.1,32.0,13,29.78,10.0,WNW,11.5,-,N/A,,Clear,300,2013-07-23 03:53:00
9:53 PM,84.9,37.9,19,29.80,10.0,NW,13.8,-,N/A,,Clear,310,2013-07-23 04:53:00
10:53 PM,82.9,39.0,21,29.81,10.0,NNW,13.8,-,N/A,,Clear,330,2013-07-23 05:53:00
11:53 PM,79.0,41.0,26,29.82,10.0,NNW,19.6,-,N/A,,Clear,340,2013-07-23 06:53:00